CST,Max TemperatureF,Mean TemperatureF,Min TemperatureF,Max Dew PointF,MeanDew PointF,Min DewpointF,Max Humidity, Mean Humidity, Min Humidity, Max Sea Level PressureIn, Mean Sea Level PressureIn, Min Sea Level PressureIn, Max VisibilityMiles, Mean VisibilityMiles, Min VisibilityMiles, Max Wind SpeedMPH, Mean Wind SpeedMPH, Max Gust SpeedMPH,PrecipitationIn, CloudCover, Events, WindDirDegrees
2011-12-1,36,25,14,31,25,8,92,76,59,30.44,30.24,30.09,10,6,2,14,6,20,0.06,6,Snow,1
2011-12-2,32,21,9,25,13,7,92,69,45,30.43,30.30,30.09,10,10,10,16,6,21,0.00,1,,178
2011-12-3,37,34,30,32,30,28,100,85,70,30.12,29.99,29.87,9,3,0,20,6,25,0.31,8,Fog-Snow,267
2011-12-4,30,27,23,28,24,19,92,88,84,30.33,30.09,29.86,10,6,2,10,6,15,0.05,8,Snow,316
2011-12-5,25,22,18,21,19,14,91,84,77,30.47,30.40,30.33,10,6,2,9,4,12,0.01,8,Snow,320
2011-12-6,20,16,11,16,13,9,92,83,73,30.44,30.28,30.07,10,9,4,15,5,18,0.01,8,Snow,246
2011-12-7,23,18,13,15,12,8,88,80,71,30.09,30.03,29.98,10,10,9,16,7,23,0.00,5,,230
2011-12-8,23,15,7,18,8,0,84,64,44,30.20,30.14,30.03,10,10,10,20,8,24,0.00,1,,256
2011-12-9,14,8,1,3,0,-3,87,73,58,30.42,30.32,30.20,10,10,10,13,6,16,0.00,0,,238
2011-12-10,24,11,-3,17,8,-6,100,79,57,30.41,30.28,30.15,10,8,1,20,6,24,0.00,1,,194
2011-12-11,40,26,12,33,19,9,92,76,59,30.18,30.14,30.10,10,4,0,22,9,29,0.00,2,Fog,197
2011-12-12,38,36,33,36,34,33,100,93,85,30.33,30.23,30.14,7,4,2,10,4,14,0.01,8,,182
2011-12-13,38,36,33,34,33,32,100,93,85,30.37,30.30,30.17,7,4,1,9,2,10,0.00,8,,105
2011-12-14,38,36,34,37,35,32,100,95,89,30.15,29.84,29.57,9,4,1,13,4,18,0.65,8,Rain-Snow,123
2011-12-15,36,28,20,36,24,13,100,79,57,30.32,29.88,29.58,10,9,6,29,14,41,T,7,Rain-Snow,290
2011-12-16,26,21,15,15,13,11,88,74,60,30.44,30.38,30.31,10,10,10,10,2,13,0.00,3,,296
2011-12-17,29,21,12,23,18,11,96,86,75,30.35,30.19,30.07,10,9,7,15,6,20,0.00,5,,232
2011-12-18,45,30,15,35,24,14,100,77,53,30.14,29.89,29.67,10,9,2,15,7,20,0.00,0,,196
2011-12-19,38,32,26,33,23,18,92,76,59,30.29,30.10,29.72,10,10,8,17,7,22,0.00,6,,330
2011-12-20,34,24,13,20,17,12,92,74,56,30.27,29.99,29.75,10,8,1,16,3,20,0.00,2,,199
2011-12-21,32,23,14,27,23,16,100,86,72,30.01,29.78,29.66,10,7,3,9,3,12,T,7,Snow,257
2011-12-22,29,20,11,24,14,6,85,68,50,30.35,30.24,30.03,10,10,10,15,6,20,0.00,5,,337
2011-12-23,29,20,11,23,18,6,92,75,57,30.32,30.10,29.96,10,6,0,22,6,30,0.04,6,Fog-Snow,203
2011-12-24,37,23,8,25,14,5,92,78,63,30.20,30.12,29.96,10,5,0,18,6,24,0.00,0,Fog,222
2011-12-25,39,31,23,26,23,20,88,74,59,30.27,30.14,29.95,10,10,10,22,9,31,0.00,2,,265
2011-12-26,49,36,22,26,22,18,92,62,31,30.19,29.87,29.62,10,10,10,29,11,39,0.00,1,,202
2011-12-27,39,29,19,29,19,10,75,63,50,30.06,29.84,29.62,10,10,10,21,10,29,0.00,5,,338
2011-12-28,31,23,14,20,14,9,74,64,53,30.06,29.89,29.64,10,10,10,15,7,20,T,4,,134
2011-12-29,34,25,16,27,23,15,100,85,69,29.71,29.58,29.42,10,9,4,13,4,16,T,5,,359
2011-12-30,31,24,16,23,21,15,92,81,69,29.89,29.75,29.64,10,9,7,9,4,13,0.00,7,,43
2011-12-31,35,29,22,32,27,19,92,84,75,29.86,29.73,29.62,10,7,1,18,7,24,0.10,7,Snow,120